Waarnemingen

Advertentie
Mijn weer
Figari, Frankrijk (7780): temperatuur & dauwpunt: 15.03.2019 13:00:00 - 21.03.2019 13:00:00 (CET)Figari, Frankrijk (7780): temperatuur 5cm: 15.03.2019 13:00:00 - 21.03.2019 13:00:00 (CET)Figari, Frankrijk (7780): windsnelheid & windstoten: 15.03.2019 13:00:00 - 21.03.2019 13:00:00 (CET)Figari, Frankrijk (7780): windrichting: 15.03.2019 13:00:00 - 21.03.2019 13:00:00 (CET)Figari, Frankrijk (7780): luchtdruk: 15.03.2019 13:00:00 - 21.03.2019 13:00:00 (CET)Figari, Frankrijk (7780): zicht: 15.03.2019 13:00:00 - 21.03.2019 13:00:00 (CET)Figari, Frankrijk (7780): neerslag: 15.03.2019 13:00:00 - 21.03.2019 13:00:00 (CET)
Datum & Tijd tt [°C] td [°C] tt 5cm [°C] ff [km/u] ff [kn] fx [km/u] fx [kn] dd ppp [hPa] vv [km] rr [mm]
21.03.2019 13:00:00 16,7 5,3 20,1 29 16 55 30 ONO 1024,8 18 0,0
21.03.2019 12:00:00 16,9 4,9 20,6 28 15 55 30 ONO 1024,7 19 0,0
21.03.2019 11:00:00 16,5 4,2 16,8 29 16 55 30 ONO 1024,4 15 0,0
21.03.2019 10:00:00 15,3 0,7 14,4 26 14 49 27 ONO 1024,4 20 0,0
21.03.2019 09:00:00 13,9 -0,6 11,6 27 14 46 25 NO 1024,6 20 0,0
21.03.2019 08:00:00 11,3 -0,8 7,4 23 12 37 20 NO 1024,3 20 0,0
21.03.2019 07:00:00 9,1 -1,6 6,2 21 11 45 25 NO 1024,0 20 0,0
21.03.2019 06:00:00 8,9 -1,8 6,0 26 14 40 22 NO 1023,7 20 0,0
21.03.2019 05:00:00 8,0 -1,0 6,4 22 12 36 19 NO 1023,7 20 0,0
21.03.2019 04:00:00 8,3 -0,5 6,1 20 11 34 18 NO 1023,9 20 0,0
21.03.2019 03:00:00 8,1 0,1 6,0 14 8 28 15 ONO 1024,4 20 0,0
21.03.2019 02:00:00 9,2 0,6 7,1 16 9 33 18 NO 1024,5 20 0,0
21.03.2019 01:00:00 9,8 0,7 8,3 22 12 41 22 NO 1024,4 20 0,0
21.03.2019 00:00:00 11,3 0,4 9,4 24 13 42 23 ONO 1024,4 20 0,0
20.03.2019 23:00:00 11,7 1,0 10,0 25 13 50 27 ONO 1024,7 20 0,0
20.03.2019 22:00:00 11,8 0,8 8,4 23 13 41 22 ONO 1025,0 20 0,0
20.03.2019 21:00:00 11,3 0,7 4,1 16 9 34 18 ONO 1024,7 20 0,0
20.03.2019 20:00:00 9,0 1,4 3,9 10 5 21 11 ONO 1024,5 20 0,0
20.03.2019 19:00:00 11,8 1,1 8,5 11 6 29 16 ONO 1024,2 20 0,0
20.03.2019 18:00:00 13,9 1,5 12,2 16 9 48 26 ONO 1023,8 20 0,0
20.03.2019 17:00:00 14,6 1,5 14,1 23 12 55 30 NO 1023,4 20 0,0
20.03.2019 16:00:00 15,5 2,3 13,6 30 16 55 30 ONO 1023,3 18 0,0
20.03.2019 15:00:00 14,5 2,7 14,6 28 15 59 32 ONO 1023,2 18 0,0
20.03.2019 14:00:00 15,5 3,9 18,8 29 16 56 30 ONO 1023,2 19 0,0
20.03.2019 13:00:00 15,4 4,4 19,0 28 15 54 29 ONO 1023,4 20 0,0
20.03.2019 12:00:00 15,4 3,5 18,8 34 18 63 34 ONO 1023,4 20 0,0
20.03.2019 11:00:00 14,5 2,1 17,2 29 16 53 28 ONO 1023,2 20 0,0
20.03.2019 10:00:00 13,7 2,3 13,0 26 14 49 26 ONO 1023,0 19 0,0
20.03.2019 09:00:00 12,3 2,2 8,4 11 6 21 11 NNO 1023,5 20 0,0
20.03.2019 08:00:00 9,1 1,3 0,9 11 6 18 10 ONO 1022,9 20 0,0
20.03.2019 07:00:00 3,4 -0,1 0,8 8 4 21 12 NNO 1022,8 20 0,0
20.03.2019 06:00:00 4,3 0,1 -0,8 13 7 21 12 ONO 1022,3 20 0,0
20.03.2019 05:00:00 2,2 -0,2 -0,5 7 4 14 8 NNO 1022,1 20 0,0
20.03.2019 04:00:00 4,9 0,7 -1,1 10 5 19 11 ONO 1022,0 20 0,0
20.03.2019 03:00:00 2,8 0,4 -1,1 6 4 9 5 NNO 1022,0 20 0,0
20.03.2019 02:00:00 4,6 1,1 -0,1 6 4 21 12 N 1022,3 20 0,0
20.03.2019 01:00:00 3,9 0,4 0,0 9 5 16 9 NNO 1022,2 20 0,0
20.03.2019 00:00:00 5,8 1,3 1,4 7 4 27 15 N 1022,0 20 0,0
19.03.2019 23:00:00 7,5 1,3 0,2 14 7 24 13 ONO 1021,9 20 0,0
19.03.2019 22:00:00 5,3 1,9 2,1 5 3 16 8 NNO 1021,9 20 0,0
19.03.2019 21:00:00 6,5 3,1 3,7 11 6 18 10 ONO 1021,4 20 0,0
19.03.2019 20:00:00 8,3 4,3 6,0 14 8 27 15 NO 1020,9 20 0,0
19.03.2019 19:00:00 9,3 5,8 7,8 14 7 25 14 NO 1020,5 20 0,0
19.03.2019 18:00:00 10,1 5,5 8,3 9 5 30 16 ONO 1019,9 20 0,0
19.03.2019 17:00:00 10,1 5,9 8,7 18 10 32 18 ONO 1019,4 20 0,0
19.03.2019 16:00:00 10,5 6,4 9,4 17 9 34 18 NO 1019,3 20 0,0
19.03.2019 15:00:00 10,9 6,6 10,2 15 8 26 14 ONO 1019,1 20 0,0
19.03.2019 14:00:00 11,6 6,9 10,1 5 3 23 12 O 1019,3 20 0,6
19.03.2019 13:00:00 11,3 7,0 10,3 11 6 29 16 O 1019,2 14 1,2
19.03.2019 12:00:00 12,9 4,8 12,1 11 6 22 12 O 1018,9 20 0,0
19.03.2019 11:00:00 13,9 2,5 14,1 8 5 23 13 W 1018,5 16 0,0
19.03.2019 10:00:00 15,4 5,0 14,5 8 5 18 10 ZZW 1018,4 20 0,0
19.03.2019 09:00:00 13,6 5,2 7,0 3 2 9 5 ZZW 1018,1 19 0,0
19.03.2019 08:00:00 6,8 3,4 -2,2 4 2 9 5 NO 1017,8 18 0,0
19.03.2019 07:00:00 -0,1 -1,5 -2,8 2 1 13 7 NNO 1017,4 20 0,0
19.03.2019 06:00:00 -0,1 -1,5 -3,0 9 5 12 6 NO 1017,0 20 0,0
19.03.2019 05:00:00 -0,4 -2,1 -2,9 6 3 10 6 NNO 1016,8 20 0,0
19.03.2019 04:00:00 -0,3 -1,9 -2,5 4 2 10 5 NO 1016,4 20 0,0
19.03.2019 03:00:00 0,1 -1,5 -2,8 6 3 10 5 NNO 1016,4 20 0,0
19.03.2019 02:00:00 1,2 -0,9 -2,2 5 3 10 6 NNO 1016,5 20 0,0
19.03.2019 01:00:00 3,5 1,0 -2,0 7 4 10 5 NO 1016,7 20 0,0
19.03.2019 00:00:00 4,3 1,8 1,5 8 5 13 7 ONO 1016,6 20 0,0
18.03.2019 23:00:00 4,5 2,0 0,5 7 4 9 5 NO 1016,6 20 0,0
18.03.2019 22:00:00 5,6 2,6 0,6 3 2 9 5 ZZO 1016,3 20 0,0
18.03.2019 21:00:00 6,1 2,4 1,1 4 2 12 6 NNO 1015,6 20 0,0
18.03.2019 20:00:00 8,6 3,2 5,7 3 2 11 6 Z 1015,3 20 0,0
18.03.2019 19:00:00 10,6 3,8 8,6 9 5 27 14 WZW 1015,4 20 0,0
18.03.2019 18:00:00 11,8 3,3 10,7 22 12 44 24 WZW 1015,1 20 0,0
18.03.2019 17:00:00 13,0 3,1 13,3 27 15 50 27 WZW 1014,8 17 0,0
18.03.2019 16:00:00 13,3 2,8 13,9 30 16 55 30 WZW 1014,5 16 0,0
18.03.2019 15:00:00 13,9 2,5 15,7 34 18 59 32 WZW 1014,2 12 0,0
18.03.2019 14:00:00 15,4 1,9 20,6 33 18 60 33 W 1014,3 19 0,0
18.03.2019 13:00:00 15,9 1,6 21,6 38 21 59 32 W 1014,5 20 0,0
18.03.2019 12:00:00 15,7 1,8 19,5 34 18 56 31 W 1015,0 19 0,0
18.03.2019 11:00:00 15,4 2,2 16,3 30 16 58 31 W 1014,6 13 0,0
18.03.2019 10:00:00 14,2 2,1 13,9 23 13 58 31 W 1014,2 11 0,0
18.03.2019 09:00:00 13,6 2,5 13,0 27 15 72 39 W 1013,7 18 0,0
18.03.2019 08:00:00 12,7 3,9 10,5 28 15 57 31 W 1013,4 20 0,0
18.03.2019 07:00:00 11,7 4,4 10,1 27 15 48 26 WZW 1013,1 20 0,0
18.03.2019 06:00:00 11,9 6,6 10,3 24 13 43 23 WZW 1012,8 20 0,0
18.03.2019 05:00:00 12,2 7,9 10,4 22 12 41 22 WZW 1012,7 20 0,0
18.03.2019 04:00:00 11,9 8,9 10,7 22 12 44 24 ZW 1012,7 20 0,0
18.03.2019 03:00:00 12,2 8,8 11,0 31 17 53 28 ZW 1012,8 20 0,0
18.03.2019 02:00:00 12,9 8,2 11,5 30 16 53 28 ZW 1012,5 20 0,0
18.03.2019 01:00:00 13,5 8,3 11,7 31 17 55 30 ZW 1012,5 20 0,0
18.03.2019 00:00:00 13,0 7,4 11,0 27 14 42 23 WZW 1013,2 20 0,0
17.03.2019 23:00:00 13,2 6,5 9,6 25 13 37 20 ZW 1013,7 20 0,0
17.03.2019 22:00:00 12,9 2,7 7,9 15 8 26 14 ZW 1013,8 20 0,0
17.03.2019 21:00:00 12,0 1,3 2,6 18 10 26 14 WZW 1013,7 20 0,0
17.03.2019 20:00:00 9,5 0,9 4,9 8 4 20 11 ZW 1013,9 20 0,0
17.03.2019 19:00:00 12,7 4,1 10,1 14 8 29 15 Z 1013,9 20 0,0
17.03.2019 18:00:00 15,0 7,8 13,5 20 11 31 17 ZZW 1013,8 20 0,0
17.03.2019 17:00:00 17,6 6,8 17,3 20 11 30 16 ZZW 1014,1 20 0,0
17.03.2019 16:00:00 19,3 5,7 18,8 19 10 29 16 ZZW 1014,4 20 0,0
17.03.2019 15:00:00 19,6 4,1 24,9 17 9 29 16 ZZW 1015,1 20 0,0
17.03.2019 14:00:00 19,4 3,1 24,9 18 10 30 16 ZZW 1015,8 20 0,0
17.03.2019 13:00:00 18,6 4,7 24,5 18 10 27 15 ZW 1016,6 19 0,0
17.03.2019 12:00:00 18,7 8,6 22,4 12 6 22 12 ZW 1017,1 20 0,0
17.03.2019 11:00:00 16,8 9,0 21,0 9 5 19 10 ZZW 1017,7 20 0,0
17.03.2019 10:00:00 15,9 8,6 16,1 5 3 15 8 ZZW 1018,3 20 0,0
17.03.2019 09:00:00 12,6 8,3 10,9 3 2 6 4 W 1018,5 20 0,0
17.03.2019 08:00:00 9,0 8,2 1,5 2 1 10 6 Z 1018,1 20 0,0
17.03.2019 07:00:00 3,4 2,7 -1,4 5 3 11 6 ONO 1018,0 20 0,0
17.03.2019 06:00:00 2,5 1,5 -1,3 5 3 8 5 ONO 1017,9 20 0,0
17.03.2019 05:00:00 4,4 3,2 0,5 2 1 9 5 N 1017,9 20 0,0
17.03.2019 04:00:00 5,2 4,0 3,6 5 3 12 7 NO 1018,0 20 0,0
17.03.2019 03:00:00 5,0 4,0 1,7 8 5 14 7 NO 1018,3 20 0,0
17.03.2019 02:00:00 5,5 4,0 3,2 8 4 17 9 NNO 1018,7 20 0,0
17.03.2019 01:00:00 5,9 4,2 2,9 15 8 33 18 WZW 1018,8 20 0,0
17.03.2019 00:00:00 6,8 5,1 3,1 4 2 35 19 N 1019,2 20 0,0
16.03.2019 23:00:00 7,5 5,5 4,2 2 1 22 12 NNO 1019,4 20 0,0
16.03.2019 22:00:00 10,4 7,3 7,2 9 5 39 21 W 1019,3 20 0,0
16.03.2019 21:00:00 12,4 8,7 11,1 24 13 44 24 WZW 1019,0 20 0,0
16.03.2019 20:00:00 12,7 8,6 11,3 26 14 48 26 ZW 1018,8 20 0,0
16.03.2019 19:00:00 12,8 8,7 11,5 28 15 44 24 WZW 1018,4 20 0,0
16.03.2019 18:00:00 13,5 9,7 12,7 26 14 47 26 WZW 1018,5 20 0,0
16.03.2019 17:00:00 13,9 9,9 13,7 29 16 49 26 WZW 1018,5 20 0,0
16.03.2019 16:00:00 14,4 9,8 14,2 28 15 46 25 WZW 1018,5 20 0,0
16.03.2019 15:00:00 15,5 9,4 15,5 29 16 48 26 WZW 1018,5 18 0,0
16.03.2019 14:00:00 15,2 9,5 15,6 29 15 49 26 WZW 1018,7 20 0,0
16.03.2019 13:00:00 15,0 9,4 15,3 29 16 55 30 WZW 1019,4 19 0,0
16.03.2019 12:00:00 15,4 10,0 16,5 29 16 52 28 WZW 1019,2 20 0,0
16.03.2019 11:00:00 15,5 9,6 17,2 29 16 48 26 WZW 1019,4 20 0,0
16.03.2019 10:00:00 16,6 10,7 17,3 32 18 54 29 WZW 1019,0 18 0,0
16.03.2019 09:00:00 16,0 10,3 15,2 27 15 46 25 WZW 1018,6 19 0,0
16.03.2019 08:00:00 14,2 10,2 12,6 25 13 40 22 WZW 1018,1 17 0,0
16.03.2019 07:00:00 13,2 10,0 11,7 23 13 41 22 WZW 1017,6 20 0,0
16.03.2019 06:00:00 12,8 9,8 11,6 27 14 43 23 WZW 1017,2 20 0,0
16.03.2019 05:00:00 12,9 9,5 11,8 27 14 47 25 WZW 1016,9 20 0,0
16.03.2019 04:00:00 13,0 9,4 11,9 33 18 55 30 WZW 1016,4 20 0,0
16.03.2019 03:00:00 13,4 9,4 12,3 34 18 59 32 ZW 1016,5 20 0,0
16.03.2019 02:00:00 13,4 9,8 12,0 31 17 51 27 ZW 1017,3 20 0,0
16.03.2019 01:00:00 13,0 9,8 11,8 29 16 49 26 ZZW 1017,6 20 0,0
16.03.2019 00:00:00 13,3 9,4 11,9 29 15 57 31 ZW 1017,5 20 0,0
15.03.2019 23:00:00 13,5 9,2 12,5 42 23 63 34 WZW 1017,2 20 0,0
15.03.2019 22:00:00 13,8 9,0 12,6 38 21 59 32 ZW 1016,9 20 0,0
15.03.2019 21:00:00 13,7 8,9 12,6 35 19 60 32 WZW 1016,6 20 0,0
15.03.2019 20:00:00 14,2 8,6 13,0 36 19 62 34 WZW 1016,5 20 0,0
15.03.2019 19:00:00 14,6 8,5 13,5 36 19 63 34 WZW 1015,9 20 0,0
15.03.2019 18:00:00 15,3 8,5 14,5 37 20 55 30 WZW 1015,5 20 0,0
15.03.2019 17:00:00 16,8 8,7 17,0 31 17 60 33 W 1015,1 19 0,0
15.03.2019 16:00:00 17,6 9,2 18,3 45 24 64 34 W 1015,0 19 0,0
15.03.2019 15:00:00 17,7 8,3 19,5 37 20 63 34 WZW 1015,4 15 0,0
15.03.2019 14:00:00 18,5 6,7 21,6 37 20 64 34 WZW 1015,0 18 0,0
15.03.2019 13:00:00 19,1 7,2 19,9 36 20 70 38 W 1015,2 20 0,0

tt = temperatuur
td = dauwpunt
tt 5cm = temperatuur 5cm
ff = windsnelheid
fx = windstoten
dd = windrichting
ppp = luchtdruk
vv = zicht
rr = neerslag

Weerstations in de omgeving